Simultaneous Nadir Overpasses (SNOs) Predictions

Prediction of SNOs between METOP-B and TERRA Satellite Orbit:

Table of predicted SNOs for the next 14.0 days since TLE Epoch: 6/4/2016
Index Date (METOP-B) Time (METOP-B) Lat,Lon (METOP-B) SZA (METOP-B ) Date (TERRA) Time (TERRA) Lat,Lon (TERRA) SZA (TERRA ) Distance(km) Time Diff (sec)
1 06/06/2016 11:56:31 -81.27,-132.48 118.55 06/06/2016 11:56:52 -81.27,-132.32 118.51 2.67 21
2 06/06/2016 12:47:10 81.28, 35.61 61.55 06/06/2016 12:46:18 81.28, 35.48 61.51 2.26 52
3 06/09/2016 07:30:54 -81.27, -66.00 118.80 06/09/2016 07:31:08 -81.27, -65.93 118.78 1.20 14
4 06/09/2016 08:21:34 81.28, 101.69 61.25 06/09/2016 08:20:34 81.28, 101.84 61.24 2.57 60
5 06/12/2016 03:05:17 -81.27, 0.46 119.01 06/12/2016 03:05:24 -81.26, 0.32 119.02 2.48 7
6 06/1
